TimeCDT,TemperatureF,Dew PointF,Humidity,Sea Level PressureIn,VisibilityMPH,Wind Direction,Wind SpeedMPH,Gust SpeedMPH,PrecipitationIn,Events,Conditions,WindDirDegrees,DateUTC
12:56 AM,59.0,43.0,55,30.14,10.0,East,5.8,-,N/A,,Clear,100,2013-04-22 05:56:00
1:56 AM,59.0,44.1,58,30.13,10.0,Calm,Calm,-,N/A,,Mostly Cloudy,0,2013-04-22 06:56:00
2:56 AM,57.0,44.1,62,30.12,10.0,ENE,3.5,-,N/A,,Clear,70,2013-04-22 07:56:00
3:56 AM,57.0,45.0,64,30.10,10.0,ESE,8.1,-,N/A,,Scattered Clouds,110,2013-04-22 08:56:00
4:56 AM,57.9,48.0,70,30.12,10.0,East,5.8,-,N/A,,Scattered Clouds,100,2013-04-22 09:56:00
5:56 AM,57.9,48.0,70,30.13,10.0,ESE,8.1,-,N/A,,Partly Cloudy,110,2013-04-22 10:56:00
6:56 AM,59.0,48.0,67,30.15,10.0,East,9.2,-,N/A,,Mostly Cloudy,100,2013-04-22 11:56:00
7:12 AM,59.0,48.2,67,30.16,10.0,ESE,12.7,-,N/A,,Mostly Cloudy,110,2013-04-22 12:12:00
7:37 AM,60.8,48.2,63,30.16,10.0,East,10.4,-,N/A,,Scattered Clouds,100,2013-04-22 12:37:00
7:56 AM,61.0,50.0,67,30.16,10.0,ESE,12.7,-,N/A,,Partly Cloudy,110,2013-04-22 12:56:00
8:56 AM,64.9,52.0,63,30.17,10.0,East,13.8,18.4,N/A,,Partly Cloudy,90,2013-04-22 13:56:00
9:17 AM,64.4,51.8,64,30.18,10.0,ESE,12.7,-,N/A,,Mostly Cloudy,110,2013-04-22 14:17:00
9:56 AM,64.9,53.1,65,30.19,10.0,East,12.7,-,N/A,,Overcast,100,2013-04-22 14:56:00
10:56 AM,66.0,54.0,65,30.19,10.0,ESE,11.5,-,N/A,,Overcast,110,2013-04-22 15:56:00
12:56 PM,68.0,54.0,61,30.17,10.0,ENE,5.8,-,N/A,,Overcast,60,2013-04-22 17:56:00
1:56 PM,70.0,54.0,57,30.14,10.0,East,9.2,-,N/A,,Overcast,100,2013-04-22 18:56:00
2:56 PM,70.0,54.0,57,30.12,10.0,East,9.2,-,N/A,,Overcast,80,2013-04-22 19:56:00
3:56 PM,71.1,54.0,55,30.11,10.0,SE,5.8,-,N/A,,Overcast,130,2013-04-22 20:56:00
4:11 PM,71.6,55.4,57,30.12,10.0,SE,3.5,-,N/A,,Overcast,130,2013-04-22 21:11:00
4:56 PM,72.0,55.0,55,30.10,10.0,Calm,Calm,-,N/A,,Overcast,0,2013-04-22 21:56:00
5:56 PM,72.0,55.0,55,30.09,10.0,Calm,Calm,-,N/A,,Mostly Cloudy,0,2013-04-22 22:56:00
6:56 PM,69.1,57.9,68,30.09,10.0,Calm,Calm,-,N/A,,Scattered Clouds,0,2013-04-22 23:56:00
7:42 PM,64.4,57.2,77,30.10,10.0,Calm,Calm,-,N/A,,Scattered Clouds,0,2013-04-23 00:42:00
7:56 PM,64.0,57.9,80,30.10,10.0,Calm,Calm,-,N/A,,Partly Cloudy,0,2013-04-23 00:56:00
8:56 PM,62.1,55.9,80,30.11,7.0,Calm,Calm,-,N/A,,Clear,0,2013-04-23 01:56:00
9:56 PM,61.0,55.0,81,30.12,9.0,Calm,Calm,-,N/A,,Clear,0,2013-04-23 02:56:00
10:56 PM,59.0,54.0,83,30.12,9.0,Calm,Calm,-,N/A,,Clear,0,2013-04-23 03:56:00
11:56 PM,57.9,53.1,84,30.12,7.0,ESE,3.5,-,N/A,,Clear,120,2013-04-23 04:56:00